Simultaneous Nadir Overpasses (SNOs) Predictions

Prediction of SNOs between AQUA and METOP-B Satellite Orbit:

Table of predicted SNOs for the next 14.0 days since TLE Epoch: 2/13/2015
Index Date (AQUA) Time (AQUA) Lat,Lon (AQUA) SZA (AQUA ) Date (METOP-B) Time (METOP-B) Lat,Lon (METOP-B) SZA (METOP-B ) Distance(km) Time Diff (sec)
1 02/14/2015 22:00:51 -73.26, 25.26 93.79 02/14/2015 21:59:42 -73.21, 23.36 93.74 61.29 69
2 02/14/2015 22:50:28 73.75,-168.15 86.74 02/14/2015 22:50:12 73.72,-168.14 86.71 3.70 16
3 02/14/2015 23:39:54 -73.78, -0.57 93.25 02/14/2015 23:40:52 -73.78, -0.67 93.25 3.14 58
4 02/17/2015 17:35:09 -73.54, 91.12 94.46 02/17/2015 17:33:57 -73.49, 90.40 94.47 23.61 72
5 02/17/2015 18:24:40 73.73,-101.64 85.73 02/17/2015 18:24:32 73.75,-101.67 85.75 2.47 8
6 02/17/2015 19:14:07 -73.80, 65.84 94.21 02/17/2015 19:15:12 -73.81, 65.82 94.20 1.43 65
7 02/20/2015 13:09:25 -73.70, 157.23 95.29 02/20/2015 13:08:14 -73.71, 157.33 95.27 3.03 71
8 02/20/2015 13:58:53 73.73, -35.20 84.73 02/20/2015 13:58:53 73.76, -35.21 84.77 3.70 0
9 02/20/2015 14:48:20 -73.80, 132.29 95.20 02/20/2015 14:49:33 -73.83, 132.29 95.19 3.39 73
10 02/23/2015 08:43:37 -73.69,-136.28 96.33 02/23/2015 08:42:36 -73.67,-136.34 96.33 2.33 61
11 02/23/2015 09:33:06 73.77, 31.17 83.75 02/23/2015 09:33:14 73.78, 31.23 83.75 2.01 8
12 02/23/2015 10:22:38 -74.10,-161.92 95.91 02/23/2015 10:23:48 -74.14,-160.54 95.93 42.47 70
13 02/26/2015 04:17:48 -73.70, -69.86 97.36 02/26/2015 04:16:56 -73.68, -69.90 97.37 2.85 52
14 02/26/2015 05:07:17 73.79, 97.58 82.73 02/26/2015 05:07:34 73.78, 97.66 82.71 2.85 17




NCC Satellite Simultaneous Nadir Overpasses (SNOs) Prediction Service
